Terminal Aerodrome Forecast
Issued by NWS

Home | Current Version | Previous Version | Text Only | Print | Product List | Glossary On
Versions: 1 2 3 4 5 6 7 8 9 10 11 12 13 14 15 16 17 18 19 20 21 22 23 24
000
FTUS45 KREV 060539
TAFTVL
TAF
KTVL 060539Z 0606/0706 19011KT P6SM SCT090 SCT150
     FM061500 19012G24KT P6SM SCT035 BKN200
     FM070100 20009G19KT P6SM SCT035 BKN200=

USA.gov is the U.S. government's official web portal to all federal, state and local government web resources and services.